[[{"header":{"parameterUnit":"m.s-1","parameterCategory":1,"la1":30.2991,"la2":30.254,"lo1":-89.0895,"lo2":-89.0444,"dy":0.0017,"dx":0.0017,"nx":28,"ny":28,"refTime":"2024-06-06T21:00:00:Z","depth":0,"parameterNumber":2,"parameterNumberName":"U-component_of_WINDS"},"data":[0,0,0,0,0,0,0,0,0,0,0,0,0,0,0,0,0,0,0,0,0,0,0,0,0,0,0,0,0,0,0,0,0,0,0,0,0,0,0,0,0,0,0,0,0,0,0,0,0,0,0,0,0,0,0,0,0,0,2.2927,2.2929,0,2.31,2.3102,2.3104,2.3129,2.3127,2.3125,2.3124,2.3302,2.3308,2.3314,0,0,0,0,0,0,0,0,0,0,0,0,0,2.2618,2.2624,2.2927,2.2929,2.2931,2.31,2.3102,2.3104,2.3129,2.3127,2.3125,2.3123,2.33,2.3307,2.3314,0,0,0,0,0,0,0,0,0,0,0,0,0,2.2768,2.2626,2.2927,2.2964,2.2969,2.3099,2.3102,2.3105,2.3129,2.3127,2.3124,2.3122,2.3297,2.3306,2.3315,2.3421,0,0,2.3344,2.3348,0,0,0,0,0,0,0,0,2.2759,2.2779,2.2956,2.2962,2.2967,2.309,2.3058,2.3211,2.313,2.3068,2.3124,2.3121,2.3233,2.3248,2.3285,2.3429,2.3437,2.3345,2.335,2.3354,2.3357,0,0,0,0,0,0,0,2.2749,2.2772,2.2995,2.2959,2.2966,2.2972,2.299,2.3087,2.3162,2.3074,2.3076,2.3096,2.3236,2.3276,2.329,2.3439,2.3344,2.3353,2.3358,2.3362,2.3677,2.368,0,0,0,0,0,0,2.2732,2.2763,2.299,2.3001,2.2855,2.2979,2.3,2.3053,2.3161,2.3175,2.3098,2.3096,2.3262,2.3279,2.3296,2.3425,2.3354,2.3363,2.3368,2.3674,2.3678,2.3681,0,0,0,0,0,0,2.2725,2.2752,2.2983,2.2883,2.2912,2.2987,2.3047,2.3058,2.3098,2.3179,2.3193,2.3125,2.326,2.3283,2.3389,2.3432,2.3367,2.3376,2.3671,2.3675,2.3679,2.3686,0,0,0,0,0,0,2.2716,2.2749,2.279,2.2883,2.2918,2.3073,2.3049,2.3063,2.3114,2.3114,2.3209,2.3222,2.326,2.3375,2.3398,2.3444,2.3383,2.3667,2.3673,2.3678,2.3682,2.3689,2.3696,0,0,0,0,0,2.2705,2.2785,2.2792,2.2819,2.297,2.3076,2.3095,2.3137,2.3118,2.3159,2.3211,2.3219,2.3424,2.3386,2.3412,2.3461,2.3665,2.3671,2.3677,2.3679,2.3688,2.3696,0,0,0,0,0,0,2.2696,2.2798,2.2807,2.292,2.2989,2.308,2.3133,2.3146,2.3222,2.3219,2.3268,2.3289,2.3392,2.3438,2.3394,2.3568,2.3543,2.3554,2.3535,2.3544,2.3551,2.3537,2.3391,0,0,0,0,0,2.2707,2.2784,2.2869,2.2961,2.2995,2.3058,2.3106,2.3132,2.3205,2.3235,2.3294,2.3366,2.3446,2.3498,2.3576,2.3689,2.3709,2.3735,2.3742,2.3748,2.3757,2.3819,2.3831,2.3701,2.3701,2.3701,0,0,2.273,2.2796,2.2842,2.296,2.3017,2.3095,2.3082,2.3166,2.3225,2.3248,2.3351,2.3397,2.348,2.3589,2.3641,2.363,2.3797,2.3755,2.3759,2.3766,2.3826,2.3838,2.3849,2.3705,2.3704,2.3704,0,0,2.2813,2.2871,2.2953,2.3009,2.3095,2.3137,2.3156,2.3245,2.3277,2.3381,2.34,2.347,2.3608,2.3665,2.3713,2.3817,2.3826,2.3841,2.3877,2.3937,2.3947,2.3956,2.3992,2.4004,2.385,2.385,2.385,0,2.2831,2.295,2.2993,2.3076,2.3127,2.3151,2.3234,2.3288,2.3394,2.3429,2.3416,2.3588,2.3646,2.3768,2.3793,2.3831,2.3855,2.383,2.3942,2.3952,2.3961,2.3996,2.4009,2.3851,2.3851,2.3851,2.3851,0,2.2968,2.305,2.3106,2.3208,2.3266,2.3348,2.3403,2.3457,2.3478,2.3521,2.3626,2.3696,2.3788,2.382,2.3842,2.3946,2.3936,2.3932,2.3907,2.3974,2.4007,2.4021,2.3853,2.3852,2.3852,2.3852,0,0,2.3049,2.3173,2.3193,2.3239,2.3335,2.3399,2.3483,2.3573,2.3617,2.369,2.376,2.3876,2.3872,2.3926,2.3955,2.4007,2.4083,2.3996,2.3999,2.4009,2.42,2.4202,2.4217,2.4091,2.4093,2.4096,2.4193,0,2.3142,2.3291,2.3332,2.3458,2.3533,2.3557,2.363,2.3696,2.3739,2.3809,2.3856,2.3936,2.3926,2.3958,2.4011,2.4062,2.4122,2.4056,2.4156,2.4159,2.4133,2.4234,2.4237,2.4325,2.4207,2.4209,2.421,0,2.327,2.3344,2.3478,2.3563,2.3596,2.3661,2.3746,2.3813,2.3889,2.3916,2.3976,2.3999,2.4087,2.4058,2.4178,2.4133,2.4176,2.4207,2.4212,2.4222,2.4188,2.4246,2.4355,2.4367,2.4232,2.423,2.4228,0,2.3313,2.3448,2.3544,2.3583,2.3686,2.373,2.3775,2.3849,2.39,2.3975,2.4008,2.4092,2.4138,2.4202,2.4248,2.4223,2.4364,2.4339,2.4388,2.4387,2.4416,2.4413,2.4532,2.4446,2.4446,2.4446,2.4445,0,2.3412,2.3492,2.3565,2.3625,2.3715,2.3762,2.385,2.3896,2.3961,2.4029,2.4056,2.4119,2.4176,2.4247,2.4284,2.4377,2.4398,2.4422,2.443,2.4419,2.4416,2.4447,2.4441,2.4449,2.4448,2.4448,2.4447,0,2.3475,2.3528,2.3635,2.3723,2.3747,2.381,2.3885,2.3944,2.3987,2.4073,2.4096,2.4163,2.4248,2.43,2.4409,2.4433,2.4535,2.4542,2.451,2.4513,2.4558,2.4553,2.47,2.4722,2.4623,2.4623,2.4624,0,2.3534,2.3596,2.3691,2.3738,2.3784,2.386,2.3912,2.3961,2.4014,2.4105,2.4152,2.4239,2.4311,2.4445,2.4504,2.4587,2.4595,2.4641,2.4607,2.4593,2.4594,2.4589,2.4595,2.4646,2.4647,2.4647,2.4648,0,2.3631,2.3654,2.3728,2.3812,2.3873,2.3941,2.4009,2.4047,2.4106,2.4165,2.4252,2.4308,2.4418,2.4503,2.4591,2.4637,2.4652,2.4658,2.4673,2.4662,2.4639,2.4651,2.4523,2.4654,2.4654,2.4653,2.4653,2.4653,2.3693,2.3749,2.3825,2.3906,2.3962,2.4025,2.4084,2.4134,2.4208,2.4301,2.4325,2.4416,2.449,2.4609,2.4657,2.4729,2.4722,2.4744,2.475,2.4754,2.4754,2.4629,2.4745,2.4745,2.4745,2.4745,2.4745,0,2.3791,2.3841,2.3916,2.4009,2.4073,2.4083,2.4158,2.4211,2.429,2.4358,2.4428,2.4528,2.4611,2.4676,2.4761,2.4805,2.4815,2.4826,2.4822,2.4833,2.4756,2.4734,2.4817,2.4817,2.4817,2.4817,2.4817,2.4817,2.3849,2.3944,2.3976,2.4099,2.4148,2.4237,2.4279,2.4337,2.4391,2.4501,2.457,2.4612,2.4678,2.4768,2.4844,2.4861,2.4891,2.4901,2.4919,2.4846,2.4838,2.483,2.4809,2.4907,2.4907,2.4989,2.499,2.499]},{"header":{"parameterUnit":"m.s-1","parameterCategory":1,"la1":30.2991,"la2":30.254,"lo1":-89.0895,"lo2":-89.0444,"dy":0.0017,"dx":0.0017,"nx":28,"ny":28,"refTime":"2024-06-06T21:00:00:Z","depth":0,"parameterNumber":3,"parameterNumberName":"V-component_of_WINDS"},"data":[0,0,0,0,0,0,0,0,0,0,0,0,0,0,0,0,0,0,0,0,0,0,0,0,0,0,0,0,0,0,0,0,0,0,0,0,0,0,0,0,0,0,0,0,0,0,0,0,0,0,0,0,0,0,0,0,0,0,2.7121,2.7121,0,2.7082,2.7081,2.7081,2.7017,2.7016,2.7015,2.7013,2.6973,2.6973,2.6973,0,0,0,0,0,0,0,0,0,0,0,0,0,2.7139,2.7139,2.7121,2.7121,2.712,2.7082,2.7081,2.7081,2.7017,2.7016,2.7014,2.7013,2.6973,2.6973,2.6973,0,0,0,0,0,0,0,0,0,0,0,0,0,2.7119,2.714,2.7121,2.7084,2.708,2.7082,2.7081,2.7081,2.7017,2.7016,2.7014,2.7012,2.6973,2.6973,2.6973,2.7008,0,0,2.6973,2.6973,0,0,0,0,0,0,0,0,2.712,2.7118,2.709,2.7086,2.7082,2.7052,2.7073,2.7056,2.7018,2.7041,2.7013,2.7011,2.7001,2.6998,2.6995,2.7006,2.7005,2.6973,2.6973,2.6973,2.6973,0,0,0,0,0,0,0,2.7122,2.712,2.7106,2.7089,2.7085,2.7068,2.7064,2.707,2.7031,2.7039,2.7034,2.7031,2.6998,2.6995,2.6993,2.7004,2.6973,2.6973,2.6973,2.6973,2.704,2.7042,0,0,0,0,0,0,2.7129,2.7121,2.7107,2.7104,2.7097,2.707,2.7064,2.7064,2.7031,2.7024,2.7032,2.7028,2.6996,2.6994,2.6992,2.7029,2.6973,2.6973,2.6973,2.7038,2.704,2.7042,0,0,0,0,0,0,2.713,2.7128,2.7108,2.7112,2.7108,2.7071,2.7071,2.7064,2.706,2.7026,2.7019,2.7036,2.6994,2.6992,2.7004,2.7027,2.6973,2.6973,2.7036,2.7039,2.7041,2.7105,0,0,0,0,0,0,2.713,2.7129,2.7142,2.7112,2.7108,2.7122,2.7073,2.7064,2.7061,2.7055,2.7027,2.7021,2.6993,2.7004,2.7004,2.7026,2.6973,2.7034,2.7037,2.704,2.71,2.7109,2.7117,0,0,0,0,0,2.7131,2.7162,2.7143,2.7142,2.7124,2.7123,2.7121,2.7088,2.7063,2.7075,2.7053,2.7022,2.7025,2.7006,2.7005,2.7027,2.7032,2.7036,2.704,2.7097,2.7108,2.7117,0,0,0,0,0,0,2.7196,2.7157,2.7136,2.7158,2.7145,2.7113,2.7128,2.7101,2.7093,2.7088,2.7047,2.7041,2.7058,2.7044,2.7025,2.7059,2.7024,2.7028,2.7067,2.7077,2.7085,2.7087,2.6973,0,0,0,0,0,2.7213,2.7216,2.7182,2.7205,2.7199,2.7165,2.7163,2.7139,2.7123,2.7117,2.7095,2.7081,2.7078,2.7077,2.7073,2.7099,2.7091,2.7113,2.7121,2.7128,2.7132,2.7142,2.7151,2.7055,2.7055,2.7055,0,0,2.7247,2.7227,2.7231,2.7217,2.7204,2.7207,2.716,2.7166,2.7168,2.7118,2.7127,2.7111,2.7092,2.7111,2.7118,2.7099,2.7156,2.7133,2.7139,2.7138,2.7147,2.7156,2.7164,2.7058,2.7058,2.7057,0,0,2.7311,2.7297,2.7313,2.7301,2.728,2.7257,2.7262,2.7234,2.7221,2.723,2.7192,2.7193,2.719,2.7177,2.717,2.7229,2.7199,2.7229,2.7271,2.7281,2.7289,2.7295,2.7314,2.7321,2.7233,2.7233,2.7233,0,2.7356,2.736,2.7325,2.7333,2.7327,2.7282,2.7297,2.7287,2.7267,2.7263,2.7243,2.7237,2.7221,2.7235,2.7249,2.7246,2.7248,2.7231,2.7291,2.7297,2.7302,2.7319,2.7327,2.7236,2.7236,2.7236,2.7235,0,2.7415,2.7419,2.7434,2.7415,2.7411,2.7423,2.7389,2.739,2.7366,2.7345,2.7354,2.7333,2.7323,2.7325,2.7302,2.7335,2.7324,2.7298,2.7262,2.7315,2.7331,2.7337,2.7241,2.724,2.7239,2.7238,0,0,2.7518,2.7479,2.7485,2.7475,2.745,2.7451,2.746,2.745,2.745,2.7438,2.7443,2.7442,2.7417,2.7409,2.7384,2.7394,2.7439,2.7366,2.7365,2.7378,2.7471,2.7489,2.7498,2.742,2.7421,2.7422,2.7472,0,2.7574,2.7588,2.7556,2.7577,2.7578,2.7536,2.7543,2.7528,2.7509,2.7507,2.7485,2.7483,2.7452,2.7447,2.7455,2.7432,2.7456,2.7428,2.7423,2.7423,2.7427,2.7506,2.7526,2.7574,2.7478,2.7479,2.748,0,2.7642,2.7632,2.7653,2.7625,2.7625,2.7632,2.7619,2.7619,2.76,2.7585,2.7577,2.7548,2.7553,2.752,2.7527,2.7508,2.7504,2.7493,2.7494,2.749,2.7453,2.7502,2.7589,2.7595,2.749,2.7489,2.7488,0,2.7711,2.7704,2.7715,2.7708,2.7676,2.7682,2.7669,2.7649,2.7645,2.7634,2.763,2.7621,2.7615,2.7608,2.7576,2.7555,2.7586,2.755,2.7572,2.7573,2.7578,2.7578,2.7663,2.758,2.758,2.758,2.758,0,2.7776,2.779,2.7745,2.7751,2.7765,2.7729,2.7744,2.7727,2.7709,2.7711,2.7674,2.7676,2.7636,2.7633,2.7609,2.7617,2.7615,2.7602,2.7595,2.7604,2.7606,2.7599,2.7594,2.7582,2.7582,2.7581,2.7581,0,2.7854,2.7825,2.7834,2.7803,2.7796,2.7807,2.778,2.7785,2.7763,2.7766,2.7764,2.773,2.7725,2.7694,2.7682,2.7666,2.7682,2.7669,2.7688,2.7683,2.7705,2.7703,2.7787,2.7796,2.771,2.7711,2.7712,0,2.7896,2.7906,2.7876,2.7875,2.7863,2.7862,2.7857,2.7822,2.7818,2.7798,2.7804,2.7796,2.7788,2.7782,2.7756,2.7746,2.7731,2.7762,2.773,2.7738,2.7729,2.7728,2.7728,2.7768,2.7769,2.777,2.7771,0,2.7973,2.7958,2.7953,2.7942,2.7937,2.7927,2.7915,2.7916,2.7877,2.7875,2.7869,2.7863,2.7851,2.7843,2.7829,2.7814,2.7785,2.7782,2.7785,2.7794,2.7803,2.7796,2.7704,2.7779,2.7778,2.7778,2.7777,2.7777,2.8032,2.8038,2.8018,2.8013,2.8,2.7989,2.7991,2.797,2.7965,2.7952,2.7932,2.7929,2.791,2.7887,2.7876,2.7872,2.7856,2.7862,2.7863,2.7865,2.7869,2.7806,2.787,2.7869,2.7869,2.7869,2.7869,0,2.8105,2.809,2.8086,2.807,2.8066,2.804,2.8025,2.8023,2.8021,2.8005,2.7998,2.7991,2.7983,2.7957,2.7945,2.7948,2.7934,2.7946,2.7944,2.7941,2.7885,2.7882,2.7957,2.7957,2.7957,2.7957,2.7957,2.7957,2.8142,2.815,2.8133,2.8133,2.8118,2.8115,2.8108,2.8098,2.8085,2.8079,2.8072,2.8055,2.8035,2.8022,2.8013,2.8005,2.8002,2.8018,2.8005,2.7953,2.7945,2.7937,2.7933,2.8018,2.8018,2.8061,2.8061,2.8062]}]]